Retour au catalogue

CZ-6A DEB

ActifPO
NORAD 61829·DEBRIS·🇨🇳 China

Lancé Aug 6, 2024 depuis Taiyuan Satellite Launch Center

Loading…

Prochains Passages (prochaines 24 heures)

TLE

FraisSource: Space-Track

Époque: Sep 14, 2026, 00:56 UTC

1 61829U 24140ACV 26257.03946119  .00043911  00000-0  28143-2 0  9990
2 61829  89.2059 278.4253 0053782 140.5371 219.9805 15.07132221105642

Suivez CZ-6A DEB en temps réel avec AllMySat

Download on the App Store